www.pogodaiklimat.ru

Погода и климат >> Архив погоды >> Индия >> Jaisalmer


ПОГОДА в Jaisalmer

  • Прогноз погоды в Jaisalmer
  • Монитор погоды в Jaisalmer
  • Климат города

АРХИВ ПОГОДЫ в Jaisalmer

Время (UTC), дата Ветер
(напр.,м/с)
 
Видим.   Явления Облачность Т
(С)
Тd
(С)
f
(%)
Тe
(С)
Тes
(С)
Комфортность P
(гПа)
Po
(гПа)
Тmin
(С)
Tmax
(С)
R
(мм)
R24
(мм)
S
(см)
06 14.05 З 1 2000 м пыль ясно +39.0 +18.5 30 +43 +66 опасность
перегрева
1003.3 1003.0
09 14.05 ЮВ 1 2000 м пыль ясно +43.0 +13.9 18 +43 +64 опасность
перегрева
999.8 1000.0
12 14.05 ЮЗ 1 2000 м пыль ясно +42.4 +13.8 19 +43 +47 опасность
перегрева
997.9 998.0 +43.6
15 14.05 ЮЗ 1 2000 м пыль ясно +39.4 +13.7 22 +40 +40 очень
душно
998.9 999.0
18 14.05 ЮЗ 3 2000 м пыль ясно +37.0 +14.6 26 +38 +38 душно 1000.1 1000.0
21 14.05 ЮЗ 2 2000 м пыль ясно +34.8 +15.4 31 +37 +37 очень
душно
999.8 1000.0
00 15.05 ЮЗ 2 2000 м пыль ясно +31.8 +15.4 37 +34 +34 душно 999.7 1000.0
03 15.05 ЮЗ 2 2000 м пыль ясно +32.4 +17.8 42 +37 +43 очень
душно
1001.3 1001.0 +30.6 +43.6
06 15.05 ЮЗ 2 2000 м пыль ясно +39.2 +17.1 28 +42 +62 опасность
перегрева
1000.3 1000.0
09 15.05 ЮЗ 3 2000 м пыль ясно +43.6 +12.8 17 +43 +58 опасность
перегрева
998.1 998.0
12 15.05 ЮЗ 2 2000 м пыль 3/3 1050 м
[Sc]
+43.0 +12.8 17 +43 +45 опасность
перегрева
996.0 996.0 +44.2
15 15.05 З 2 2000 м пыль 1/1 900 м
[]
+40.8 +7.2 13 +38 +38 очень
жарко
996.6 997.0
18 15.05 ЮЗ 1 2000 м пыль ясно +37.4 +10.2 19 +36 +36 очень
жарко
998.9 999.0
21 15.05 ЮЗ 2 2000 м пыль ясно +35.0 +11.4 24 +35 +35 очень
жарко
998.8 999.0
00 16.05 ЮЗ 2 2000 м пыль ясно +29.4 +12.8 36 +37 +37 очень
душно
999.6 1000.0
03 16.05 СВ 2 500 м пыль ?/? +31.0 +14.3 36 +33 +33 душно 1001.6 1002.0 +28.5 +44.2
06 16.05 В 2 500 м пыль ?/? +36.4 +16.0 30 +38 +38 очень
душно
1001.4 1001.0
09 16.05 Ю 1 500 м пыль ясно +41.6 +13.4 19 +42 +65 опасность
перегрева
999.3 999.0
12 16.05 ЮЗ 1 1000 м пыль 3/3 900 м
[Sc]
+42.6 +9.1 14 +41 +44 опасность
перегрева
997.1 997.0 +43.1
15 16.05 ЮЗ 1 2000 м пыль 1/1 900 м
[Sc]
+39.0 +12.5 21 +39 +39 очень
жарко
997.6 998.0
18 16.05 Ю 1 2000 м пыль ясно +36.0 +9.3 20 +35 +35 очень
жарко
998.9 999.0
21 16.05 Ю 1 2000 м пыль ясно +33.6 +11.1 25 +33 +33 жарко 998.7 999.0
00 17.05 ЮЗ 2 2000 м пыль ясно +31.0 +22.2 60 +40 +40 очень
душно
999.1 999.0
03 17.05 Ю 2 2000 м пыль ясно +32.0 +20.6 51 +39 +45 очень
душно
1000.2 1000.0 +29.8 +43.1
06 17.05 ЮЗ 2 2000 м пыль ясно +40.6 +12.7 19 +40 +62 опасность
солнечного
удара
999.8 1000.0
09 17.05 ЮЗ 5 2000 м пыль ясно +43.4 +10.2 14 +42 +51 опасность
перегрева
997.8 998.0
12 17.05 ЮЗ 5 2000 м пыль 4/4 1050 м
[Cu med, cong]
+43.4 +4.6 10 +41 +42 опасность
перегрева
995.2 995.0 +43.9
15 17.05 ЮЗ 2 2000 м пыль 1/1 1050 м
[Sc]
+39.4 +4.6 12 +36 +36 очень
жарко
996.4 996.0
18 17.05 СВ 7 500 м пыльная буря на расстоянии {метель} ?/? +32.6 +12.0 28 +33 +33 жарко 999.2 999.0
21 17.05 СВ 1 1000 м пыль {метель} ясно +30.8 +14.0 36 +32 +32 жарко 998.8 999.0
00 18.05 С 4 1000 м пыль {метель} ясно +28.4 +14.1 42 +31 +31 душно 999.5 1000.0
03 18.05 СВ 3 2000 м пыль ясно +30.4 +13.9 37 +32 +37 жарко 1001.0 1001.0 +27.3 +43.9
06 18.05 В 3 2000 м пыль ясно +37.0 +10.6 20 +36 +52 опасность
солнечного
удара
1000.6 1001.0
09 18.05 СВ 2 2000 м пыль ясно +41.4 +7.8 13 +39 +57 опасность
солнечного
удара
998.1 998.0
12 18.05 С 3 2000 м пыль 1/1 900 м
[Sc]
+41.8 +0.9 8 +38 +42 очень
жарко
996.9 997.0 +42.8
18 18.05 С 2 2000 м пыль ясно +35.4 +2.6 13 +32 +32 жарко 998.4 998.0
21 18.05 С 1 2000 м пыль ясно +32.8 +4.9 17 +30 +30 жарко 997.7 998.0
00 19.05 штиль 0 2000 м пыль ясно +29.6 +12.2 34 +30 +30 жарко 999.3 999.0
03 19.05 С 3 2000 м пыль ясно +32.8 +7.4 21 +31 +37 жарко 1000.7 1001.0 +28.8 +42.8
06 19.05 СВ 2 2000 м пыль ясно +39.4 +6.8 14 +37 +57 опасность
солнечного
удара
1000.4 1000.0
09 19.05 нст 1 2000 м пыль 1/1 1050 м
[Sc]
+42.0 +4.9 11 +39 +59 опасность
солнечного
удара
998.5 999.0
12 19.05 С 5 2000 м пыль 1/1 1050 м
[Sc]
+41.0 +2.3 9 +37 +39 очень
жарко
997.1 997.0 +42.8
15 19.05 С 4 2000 м пыль ясно +38.0 +4.3 13 +35 +35 очень
жарко
998.6 999.0
18 19.05 СВ 3 2000 м пыль ясно +35.4 +4.1 14 +32 +32 жарко 1000.1 1000.0
21 19.05 СВ 2 2000 м пыль ясно +33.0 +6.1 19 +31 +31 жарко 999.9 1000.0
00 20.05 В 1 2000 м пыль 3/3 900 м
[Sc]
+31.4 +9.0 25 +31 +31 жарко 1000.6 1001.0
03 20.05 СВ 1 2000 м пыль ясно +35.6 +7.9 18 +34 +41 очень
жарко
1001.7 1002.0 +30.8 +42.8
06 20.05 С 2 2000 м пыль ясно +40.8 -0.2 8 +37 +59 опасность
солнечного
удара
1001.7 1002.0
09 20.05 С 2 2000 м пыль ясно +42.2 -3.1 6 +38 +58 опасность
солнечного
удара
1000.0 1000.0
12 20.05 СВ 1 4000 м 1/1 900 м
[Sc]
+42.4 -2.3 6 +38 +43 очень
жарко
998.2 998.0 +43.6
15 20.05 С 3 4000 м 1/0
[Ci fib]
+38.8 -2.6 7 +35 +35 очень
жарко
999.1 999.0
18 20.05 С 4 4000 м ясно +34.8 +8.2 20 +33 +33 жарко 1000.4 1000.0
21 20.05 С 5 4000 м ясно +32.0 +12.5 30 +32 +32 жарко 1000.3 1000.0
00 21.05 СВ 2 4000 м 6/0
[Ac trans]
+30.6 +7.6 24 +30 +30 жарко 1001.0 1001.0

 

Местоположение метеостанции Jaisalmer (Rajasthan, Индия): широта 26.90 долгота 70.92 высота над уровнем моря 231 м.

В архиве по умолчанию представлена погода в Jaisalmer за последнюю неделю. Архивные данные за месяц целиком и за предыдущие месяцы, начиная с января 2011 года, Вы можете получить, выбрав интересующий диапазон дат из раскрывающегося списка и нажав кнопку "Ввод!".


*Определитесь, кто Вы:
робот инопланетянин человек

Внимание! Время в таблицах - всемирное. Для получения местного времени необходимо прибавить поправку, которая в Jaisalmer равна 5.5 ч.

Смотрите также архив погоды в соседних городах и на ближайших метеорологических станциях:

Погода в Barmer (Rajasthan, Индия) (136 км)
Погода в Chhor (Пакистан) (191 км)
Погода в Khanpur (Пакистан) (196 км)
Погода в Rohri (Пакистан) (217 км)
Погода в Jodhpur (Rajasthan, Индия) (219 км)
Погода в Nawabshah (Пакистан) (264 км)
Погода в Bikaner (Rajasthan, Индия) (265 км)
Погода в Pad Idan (Пакистан) (277 км)
Погода в Jacobabad (Пакистан) (287 км)
Погода в Bahawalpur (Пакистан) (291 км)

Пояснения к столбцам:

Ветер - указаны скорость ветра в м/с - средняя за 10 мин, порывы в срок и между сроками (в фигурных скобках) и направление, откуда дует ветер: С - северный, СВ - северо-восточный, В - восточный, ЮВ - юго-восточный, Ю - южный, ЮЗ - юго-западный, З - западный, СЗ - северо-западный.
Видимость - горизонтальная дальность видимости в метрах или километрах. При видимости от 1 до 10 км при отсутствии осадков обычно наблюдается дымка, при ухудшении видимости до 1 км и менее - туман. В сухую погоду видимость может ухудшаться дымом, пылью или мглою.
Явления - указаны атмосферные явления, наблюдавшиеся в срок или в последний час перед сроком; фигурными скобками обозначены явления, наблюдавшиеся между сроками (за 1-3 часа до срока); квадратными скобками обозначены град или гололедные отложения с указанием их диаметра в мм.
Облачность - указаны через наклонную черту общая и нижняя облачность в баллах и высота нижней границы облаков в метрах; квадратными скобками обозначены формы облаков: Ci - перистые, Cs - перисто-слоистые, Cc - перисто-кучевые, Ac - высококучевые, As - высокослоистые, Sc - слоисто-кучевые, Ns - слоисто-дождевые, Cu - кучевые, Cb - кучево-дождевые. Подробнее классификацию облаков см. в Атласе облаков (PDF).
T - Температура воздуха - температура, измеренная на высоте 2 м над землей.
Td - Температура точки росы - температура, при понижении до которой содержащийся в воздухе водяной пар достигнет насыщения.
f - Относительная влажность воздуха - влажноcть воздуха, измеренная на высоте 2 м над землей.
Te - Эффективная температура - температура, которую ощущает одетый по сезону человек в тени. Характеристика душности погоды. При расчете учитывается влияние влажности воздуха и скорости ветра на теплоощущения человека.
Tes - Эффективная температура на солнце - температура, которую ощущает человек, с поправкой на солнечный нагрев. Характеристика знойности погоды. Зависит от высоты солнца над горизонтом, облачности и скорости ветра. Ночью, в пасмурную погоду, а также при ветре 12 м/с и более поправка равна нулю.
P - Атмосферное давление - приведенное к уровню моря атмосферное давление.
Po - Атмосферное давление - измеренное на уровне метеостанции атмосферное давление.
Tmin - Минимальная температура - минимум температуры воздуха на высоте 2 м над землей.
Tmax - Максимальная температура - максимум температуры воздуха на высоте 2 м над землей.
R - Количество осадков - Количество выпавших осадков за период времени, мм. При наведении курсора мыши на число - период времени, за который выпало указанное количество осадков.
R24 - Количество осадков - Количество выпавших осадков за 24 часа, мм.
S - Снежный покров - Высота снежного покрова, см. При наведении курсора мыши на число - состояние снежного покрова и степень покрытия местности в баллах.